�������l�o���
Date,Time,MP-1(��Sv/h),MP-2(��Sv/h),MP-3(��Sv/h),MP-4(��Sv/h),MP-5(��Sv/h),MP-6(��Sv/h),MP-7(��Sv/h),MP-8(��Sv/h),����,����(m/s),���J
2023/05/14,00:00,0.564,0.829,0.497,1.000,0.726,0.324,0.576,0.543,��,6.2,�L
2023/05/14,00:10,0.564,0.830,0.498,1.001,0.724,0.323,0.576,0.545,��쐼,7.3,��
2023/05/14,00:20,0.564,0.829,0.496,1.001,0.724,0.323,0.577,0.544,��,7.8,��
2023/05/14,00:30,0.563,0.829,0.498,1.001,0.722,0.324,0.577,0.544,��쐼,8.3,��
2023/05/14,00:40,0.562,0.829,0.497,1.001,0.723,0.326,0.576,0.545,��,8.0,��
2023/05/14,00:50,0.563,0.831,0.499,1.002,0.724,0.324,0.576,0.543,��,7.0,�L
2023/05/14,01:00,0.564,0.828,0.496,1.001,0.724,0.324,0.577,0.544,��,7.6,�L
2023/05/14,01:10,0.564,0.828,0.496,1.000,0.722,0.323,0.575,0.545,��,8.1,�L
2023/05/14,01:20,0.564,0.828,0.497,1.001,0.724,0.324,0.576,0.545,��쐼,7.5,�L
2023/05/14,01:30,0.564,0.830,0.497,1.001,0.724,0.323,0.575,0.543,��쐼,7.1,�L
2023/05/14,01:40,0.562,0.829,0.498,1.000,0.722,0.324,0.577,0.543,��,7.1,�L
2023/05/14,01:50,0.564,0.829,0.497,1.001,0.723,0.325,0.575,0.544,��쐼,6.3,�L
2023/05/14,02:00,0.564,0.829,0.496,1.002,0.723,0.326,0.574,0.544,��,6.7,�L
2023/05/14,02:10,0.564,0.827,0.497,1.002,0.725,0.326,0.574,0.544,��쐼,6.7,�L
2023/05/14,02:20,0.565,0.826,0.497,1.001,0.723,0.325,0.576,0.543,��,5.6,�L
2023/05/14,02:30,0.564,0.828,0.497,1.001,0.724,0.327,0.576,0.544,��쐼,5.8,�L
2023/05/14,02:40,0.565,0.827,0.497,1.001,0.723,0.325,0.575,0.544,��,6.0,�L
2023/05/14,02:50,0.563,0.825,0.496,0.998,0.722,0.326,0.577,0.543,��쐼,5.7,�L
2023/05/14,03:00,0.563,0.826,0.494,1.000,0.724,0.325,0.577,0.545,��쐼,3.6,�L
2023/05/14,03:10,0.564,0.826,0.495,0.999,0.724,0.325,0.576,0.543,��쐼,3.4,�L
2023/05/14,03:20,0.563,0.825,0.497,1.001,0.721,0.325,0.576,0.543,��쐼,4.0,�L
2023/05/14,03:30,0.562,0.826,0.494,1.002,0.725,0.326,0.577,0.543,��쐼,3.8,�L
2023/05/14,03:40,0.561,0.824,0.496,1.001,0.724,0.325,0.576,0.544,��쐼,3.2,�L
2023/05/14,03:50,0.563,0.826,0.495,1.000,0.724,0.325,0.576,0.542,��쐼,3.0,�L
2023/05/14,04:00,0.563,0.824,0.495,0.999,0.723,0.325,0.576,0.544,��쐼,2.9,��
2023/05/14,04:10,0.561,0.824,0.495,1.000,0.723,0.325,0.577,0.543,��,2.3,��
2023/05/14,04:20,0.560,0.825,0.495,0.998,0.723,0.326,0.576,0.545,��쐼,1.5,��
2023/05/14,04:30,0.561,0.824,0.495,1.002,0.725,0.326,0.576,0.545,��쐼,1.5,��
2023/05/14,04:40,0.562,0.823,0.495,1.002,0.724,0.326,0.577,0.544,��,1.7,��
2023/05/14,04:50,0.561,0.822,0.494,0.999,0.723,0.325,0.575,0.544,��쓌,1.7,��
2023/05/14,05:00,0.562,0.823,0.494,0.999,0.723,0.325,0.575,0.544,��쓌,3.5,��
2023/05/14,05:10,0.562,0.823,0.495,1.000,0.723,0.325,0.576,0.545,��쓌,5.3,��
2023/05/14,05:20,0.563,0.823,0.494,1.000,0.722,0.325,0.577,0.542,��쓌,5.9,��
2023/05/14,05:30,0.560,0.823,0.494,0.999,0.721,0.325,0.577,0.543,��쓌,6.3,��
2023/05/14,05:40,0.561,0.823,0.494,0.998,0.722,0.324,0.575,0.543,��,6.5,��
2023/05/14,05:50,0.561,0.823,0.494,1.001,0.721,0.325,0.575,0.543,��,6.8,��
2023/05/14,06:00,0.561,0.824,0.494,1.000,0.723,0.325,0.575,0.544,��,6.7,��
2023/05/14,06:10,0.563,0.823,0.495,0.999,0.721,0.325,0.576,0.545,��,7.5,��
2023/05/14,06:20,0.561,0.825,0.494,1.000,0.723,0.325,0.578,0.543,��,6.0,��
2023/05/14,06:30,0.564,0.824,0.495,1.001,0.723,0.325,0.576,0.543,��쓌,6.7,��
2023/05/14,06:40,0.562,0.822,0.493,1.002,0.721,0.323,0.575,0.545,��쓌,7.0,��
2023/05/14,06:50,0.560,0.824,0.497,1.000,0.724,0.324,0.577,0.544,��쓌,7.3,��
2023/05/14,07:00,0.561,0.821,0.495,0.998,0.722,0.326,0.577,0.544,��,7.3,��
2023/05/14,07:10,0.562,0.821,0.495,1.001,0.722,0.323,0.576,0.545,��,7.8,��
2023/05/14,07:20,0.561,0.820,0.496,0.999,0.720,0.323,0.575,0.542,��,6.6,��
2023/05/14,07:30,0.559,0.823,0.496,0.998,0.722,0.323,0.574,0.545,��,5.8,��
2023/05/14,07:40,0.561,0.824,0.495,1.002,0.720,0.324,0.576,0.543,��,5.3,��
2023/05/14,07:50,0.560,0.822,0.497,1.000,0.720,0.324,0.575,0.544,��,5.8,��
2023/05/14,08:00,0.560,0.823,0.496,0.999,0.721,0.323,0.576,0.543,��,6.3,��
2023/05/14,08:10,0.563,0.825,0.496,1.000,0.722,0.323,0.575,0.543,��쓌,5.8,��
2023/05/14,08:20,0.561,0.822,0.496,1.001,0.722,0.323,0.577,0.543,��,7.3,��
2023/05/14,08:30,0.560,0.824,0.496,1.001,0.722,0.322,0.575,0.541,��,5.6,��
2023/05/14,08:40,0.561,0.822,0.496,1.001,0.721,0.323,0.578,0.542,��,7.7,��
2023/05/14,08:50,0.563,0.823,0.496,1.001,0.723,0.324,0.575,0.543,��쓌,7.2,��
2023/05/14,09:00,0.562,0.825,0.496,1.000,0.724,0.325,0.576,0.544,��쓌,9.9,��
2023/05/14,09:10,0.561,0.822,0.494,1.001,0.720,0.323,0.577,0.543,��쓌,7.8,��
2023/05/14,09:20,0.562,0.824,0.495,1.000,0.722,0.324,0.577,0.541,��쓌,9.6,��
2023/05/14,09:30,0.563,0.823,0.495,1.001,0.721,0.325,0.578,0.541,��쓌,10.2,��
2023/05/14,09:40,0.562,0.824,0.496,1.001,0.723,0.324,0.576,0.542,��쓌,10.0,��
2023/05/14,09:50,0.564,0.826,0.495,1.002,0.722,0.324,0.575,0.542,��쓌,9.0,��
2023/05/14,10:00,0.563,0.825,0.494,1.001,0.721,0.324,0.577,0.542,��쓌,8.1,��
2023/05/14,10:10,0.563,0.825,0.496,1.001,0.723,0.324,0.576,0.541,��쓌,8.6,��
2023/05/14,10:20,0.561,0.825,0.493,1.002,0.721,0.324,0.575,0.542,��쓌,8.5,��
2023/05/14,10:30,0.563,0.825,0.495,1.001,0.723,0.325,0.575,0.541,��쓌,9.2,��
2023/05/14,10:40,0.563,0.828,0.495,1.001,0.724,0.324,0.575,0.541,��쓌,10.2,��
2023/05/14,10:50,0.562,0.826,0.495,1.002,0.723,0.324,0.576,0.543,��쓌,11.3,��
2023/05/14,11:00,0.562,0.826,0.494,1.001,0.722,0.325,0.576,0.542,��쓌,10.6,��
2023/05/14,11:10,0.563,0.826,0.495,1.002,0.725,0.323,0.575,0.542,��쓌,9.4,��
2023/05/14,11:20,0.565,0.826,0.494,1.002,0.724,0.325,0.576,0.541,��쓌,9.7,��
2023/05/14,11:30,0.562,0.826,0.494,1.001,0.725,0.323,0.576,0.543,��쓌,11.0,��
2023/05/14,11:40,0.564,0.827,0.495,1.004,0.725,0.324,0.576,0.542,��쓌,9.8,��
2023/05/14,11:50,0.563,0.825,0.496,1.003,0.725,0.325,0.576,0.541,��쓌,10.8,��
2023/05/14,12:00,0.565,0.826,0.496,1.001,0.723,0.325,0.576,0.543,��쓌,11.0,��
2023/05/14,12:10,0.563,0.825,0.496,1.003,0.724,0.324,0.575,0.541,��쓌,10.6,��
2023/05/14,12:20,0.563,0.827,0.496,1.001,0.726,0.325,0.575,0.543,��쓌,11.4,��
2023/05/14,12:30,0.564,0.826,0.497,1.002,0.726,0.325,0.576,0.544,��쓌,11.6,��
2023/05/14,12:40,0.564,0.827,0.496,1.002,0.726,0.324,0.577,0.542,��,10.5,��
2023/05/14,12:50,0.564,0.827,0.496,1.002,0.725,0.324,0.577,0.543,��쓌,10.0,��
2023/05/14,13:00,0.564,0.828,0.496,1.004,0.725,0.324,0.576,0.543,��쓌,7.9,��
2023/05/14,13:10,0.564,0.826,0.496,1.002,0.725,0.324,0.577,0.542,��쓌,11.0,��
2023/05/14,13:20,0.565,0.827,0.497,1.002,0.727,0.325,0.576,0.543,��쓌,11.0,��
2023/05/14,13:30,0.563,0.827,0.495,1.004,0.726,0.326,0.576,0.543,��쓌,12.2,��
2023/05/14,13:40,0.564,0.829,0.496,1.003,0.727,0.326,0.575,0.544,��쓌,13.3,��
2023/05/14,13:50,0.565,0.826,0.497,1.002,0.726,0.326,0.575,0.542,��쓌,14.1,��
2023/05/14,14:00,0.564,0.829,0.497,1.004,0.726,0.326,0.575,0.542,��쓌,11.0,��
2023/05/14,14:10,0.565,0.830,0.496,1.003,0.727,0.325,0.576,0.543,��,12.8,��
2023/05/14,14:20,0.564,0.827,0.496,1.002,0.727,0.324,0.576,0.543,��,9.9,��
2023/05/14,14:30,0.563,0.828,0.497,1.002,0.728,0.325,0.578,0.542,��쓌,13.3,��
2023/05/14,14:40,0.564,0.825,0.498,1.003,0.727,0.324,0.578,0.545,��쓌,11.3,��
2023/05/14,14:50,0.566,0.827,0.495,1.003,0.727,0.324,0.577,0.543,��쓌,11.9,��
2023/05/14,15:00,0.566,0.828,0.496,1.004,0.726,0.327,0.575,0.544,��,10.7,��
2023/05/14,15:10,0.564,0.828,0.497,1.004,0.727,0.325,0.576,0.543,��쓌,8.5,��
2023/05/14,15:20,0.564,0.827,0.495,1.003,0.725,0.325,0.578,0.542,��,9.6,��
2023/05/14,15:30,0.564,0.828,0.495,1.003,0.726,0.324,0.573,0.543,��,7.5,�L
2023/05/14,15:40,0.564,0.828,0.496,1.005,0.728,0.325,0.575,0.543,��,7.8,�L
2023/05/14,15:50,0.564,0.828,0.495,1.005,0.728,0.324,0.577,0.542,��,6.2,��
2023/05/14,16:00,0.564,0.828,0.496,1.006,0.726,0.324,0.576,0.543,��,6.9,�L
2023/05/14,16:10,0.565,0.827,0.497,1.004,0.726,0.324,0.576,0.544,��,7.3,��
2023/05/14,16:20,0.563,0.828,0.496,1.006,0.727,0.325,0.575,0.542,��,8.0,�L
2023/05/14,16:30,0.563,0.828,0.498,1.006,0.727,0.325,0.576,0.543,��,6.8,�L
2023/05/14,16:40,0.564,0.828,0.497,1.004,0.727,0.324,0.577,0.543,��,6.1,�L
2023/05/14,16:50,0.565,0.829,0.497,1.007,0.725,0.325,0.576,0.544,��쓌,7.4,�L
2023/05/14,17:00,0.564,0.828,0.497,1.005,0.727,0.325,0.576,0.544,��쓌,6.7,�L
2023/05/14,17:10,0.563,0.825,0.497,1.006,0.724,0.324,0.575,0.541,��,10.9,�L
2023/05/14,17:20,0.560,0.818,0.492,1.003,0.722,0.323,0.571,0.540,��,8.9,�L
2023/05/14,17:30,0.561,0.817,0.492,1.002,0.724,0.323,0.574,0.542,��,9.0,��
2023/05/14,17:40,0.559,0.815,0.491,1.004,0.720,0.324,0.572,0.541,��,9.0,�L
2023/05/14,17:50,0.559,0.817,0.493,1.004,0.722,0.324,0.572,0.540,��,9.3,�L
2023/05/14,18:00,0.562,0.818,0.492,1.002,0.723,0.324,0.572,0.542,��,9.9,�L
2023/05/14,18:10,0.561,0.816,0.494,1.004,0.723,0.323,0.572,0.541,��쓌,11.3,�L
2023/05/14,18:20,0.561,0.818,0.493,1.000,0.723,0.323,0.574,0.543,��,7.8,��
2023/05/14,18:30,0.561,0.818,0.493,1.004,0.724,0.323,0.572,0.543,��,8.6,�L
2023/05/14,18:40,0.562,0.818,0.494,1.003,0.721,0.325,0.573,0.542,��,8.7,�L
2023/05/14,18:50,0.560,0.820,0.494,1.003,0.721,0.323,0.575,0.542,��,6.9,�L
2023/05/14,19:00,0.563,0.819,0.493,1.005,0.722,0.323,0.573,0.543,��,7.3,�L
2023/05/14,19:10,0.562,0.819,0.494,1.003,0.724,0.326,0.574,0.545,��,6.9,�L
2023/05/14,19:20,0.562,0.820,0.492,1.004,0.724,0.324,0.574,0.543,��,6.7,�L
2023/05/14,19:30,0.563,0.820,0.492,1.002,0.723,0.326,0.574,0.544,��,7.7,�L
2023/05/14,19:40,0.562,0.821,0.494,1.004,0.724,0.325,0.573,0.542,��,7.9,�L
2023/05/14,19:50,0.564,0.821,0.492,1.002,0.723,0.324,0.573,0.543,��쓌,8.8,�L
2023/05/14,20:00,0.563,0.818,0.493,1.004,0.723,0.325,0.575,0.543,��,7.7,�L
2023/05/14,20:10,0.560,0.817,0.491,1.000,0.720,0.323,0.574,0.543,��,7.7,�L
2023/05/14,20:20,0.560,0.815,0.492,0.999,0.720,0.323,0.574,0.542,��,7.8,�L
2023/05/14,20:30,0.560,0.814,0.489,0.997,0.712,0.323,0.572,0.543,��,7.8,�L
2023/05/14,20:40,0.560,0.813,0.489,0.999,0.713,0.323,0.574,0.541,��,8.9,�L
2023/05/14,20:50,0.557,0.811,0.487,0.994,0.710,0.322,0.571,0.540,��,7.8,�L
2023/05/14,21:00,0.555,0.811,0.487,0.994,0.713,0.321,0.572,0.538,��,7.1,�L
2023/05/14,21:10,0.554,0.810,0.488,0.996,0.712,0.322,0.574,0.538,��,9.2,�L
2023/05/14,21:20,0.556,0.811,0.488,0.996,0.712,0.321,0.571,0.538,��,7.6,�L
2023/05/14,21:30,0.555,0.810,0.488,0.993,0.713,0.322,0.571,0.540,��,8.2,�L
2023/05/14,21:40,0.555,0.810,0.489,0.996,0.713,0.322,0.572,0.541,��,8.5,�L
2023/05/14,21:50,0.554,0.809,0.490,0.994,0.712,0.322,0.573,0.541,��,8.1,�L
2023/05/14,22:00,0.555,0.812,0.488,0.995,0.712,0.322,0.572,0.538,��,7.6,��
2023/05/14,22:10,0.555,0.812,0.488,0.994,0.713,0.322,0.572,0.540,��,7.9,�L
2023/05/14,22:20,0.555,0.809,0.489,0.995,0.709,0.321,0.572,0.539,��,10.8,�L
2023/05/14,22:30,0.554,0.810,0.489,0.995,0.711,0.321,0.570,0.540,��,9.3,�L
2023/05/14,22:40,0.553,0.807,0.488,0.993,0.707,0.322,0.571,0.540,��,7.8,�L
2023/05/14,22:50,0.555,0.808,0.487,0.994,0.709,0.321,0.571,0.538,��,7.4,�L
2023/05/14,23:00,0.554,0.805,0.488,0.992,0.708,0.321,0.571,0.539,��,6.7,�L
2023/05/14,23:10,0.556,0.807,0.488,0.993,0.709,0.321,0.573,0.538,��,7.0,�L
2023/05/14,23:20,0.557,0.809,0.488,0.993,0.709,0.323,0.570,0.540,��,7.0,�L
2023/05/14,23:30,0.556,0.810,0.489,0.996,0.711,0.322,0.573,0.541,��쓌,7.3,��
2023/05/14,23:40,0.556,0.811,0.488,0.993,0.711,0.322,0.572,0.540,��쓌,7.6,�L
2023/05/14,23:50,0.556,0.810,0.488,0.993,0.711,0.322,0.573,0.539,��,7.6,�L
